{"data":{"norad_id":66872,"intl_designator":"2025-281AA","name":"STARLINK-36082","alt_names":[],"object_type":"PAYLOAD","status":"ACTIVE","operator":null,"country":"US","launch_date":"2025-12-02","launch_site_code":"AFETR","launch_vehicle":null,"mission":null,"orbit_class":"UNKNOWN","rcs_meters":null,"size_class":null,"mass_kg":null,"dimensions":null,"purposes":["comms"],"wikipedia_slug":null,"has_3d_model":false,"image_url":null,"decayed_at":null,"tle_current":{"epoch":"2026-09-19T11:42:08.202816Z","epoch_age_seconds":171543,"freshness":"FRESH","line1":"1 66872U 25281AA  26262.48759494  .00008287  00000+0  31023-3 0  9991","line2":"2 66872  43.0039 329.0683 0000226  80.0633 280.0244 15.27588201 45818","mean_motion":15.27588201,"eccentricity":2.26e-5,"inclination_deg":43.0039,"raan_deg":329.0683,"arg_perigee_deg":80.0633,"mean_anomaly_deg":280.0244,"bstar":0.00031023,"rev_number":4581,"period_min":94.266242633803,"perigee_km":482.86947715443,"apogee_km":483.17960165601,"semimajor_km":6861.1615394052,"source":"CELESTRAK","updated_at":"2026-09-21T09:00:36.030721Z"}}}